Find the Weather for any City, State  
or Zipcode, or Country:

West Linn, OR 97068 Weather
Local Radar
Local Radar  
Graphs, Details
Graphs and Gauges
Detailed Weather
Detailed Reports
Maps
Temperature
Heat Index
Windchill
Humidity
Radar
Dew Point
Wind
Visibility
Visible Satellite
Satellite
Fronts
Snow Depth
Jet Stream
Flight Rules
Forecast Maps
Temperature Forecast
Maximum Temperature Forecast
Minimum Temperature Forecast
Dewpoint Forecast
Prevalent Weather
12Hr Probability of Precip.
Sky Cover
Health Maps
UV Forecast
Air Quality
Peak Air Quality Index
Weather Station
Oregon Scientific WMR-968
Current Conditions [Select Refresh to Update]
Updated: 4:15pm on 1/31/15
(location)
Currently:
46.4°
Clear
Clear
High: 48.4° 
(12:39pm) 
Low: 34.9° 
(7:37am)
Wind: 4 mph from the NNE
Gust: 8 mph
Today's High Wind: 14 mph (2:49pm)
Humidity: 62%
Pressure: 30.11 in  (Steady) 
Pressure Rate: -0.004 in/hr
Dew Point: 34.1°
Wind Chill: 44.7°
Heat Index (feels like): 48.4°
Comfort Level: Cool
Temperature Rate:  -0.89°/hr
 
5 Day Forecast
 
Sat Sun Mon Tue Wed
Clear Clear Clear Clear Clear
Partly Cloudy Rain Rain Partly Cloudy Partly Cloudy
55° 48° 54° 50° 54°
36° 43° 43° 41° 43°
Records and Normals
 
Temperature Forecast Normal Record
High 55°
(0)
Low 36°
(0)
 
Weather Advisories
No Advisories
Full Advisory Text...
Weather Map
Almanac
 
Sunrise:  
7:31am
Moonrise: 
2:44pm
Moon Phase:
92%
Sunset: 
5:14pm
Moonset:  
5:00am
 Star Chart...
Rainfall Totals
Hourly Rain 0.00 in
Daily Rain: 0.00 in
Monthly Rain: 2.60 in
Yearly Rain: 51.93 in
Normal Rain, month to date: 0.00 in
Normal Rain, year to date: 0.00 in
Local Weather Exchange® Network
Station ID City 
(Click for Map Location)
Neighborhood 
(Click for History)
Last Update (Date & Time) Temperature
 (°)
Dew
Point (°)
Humidity 
(%)
Wind 
(mph)
from the Wind Gust 
(mph) 
Pressure (in) Hourly
Rain (in)
KORWESTL3 West Linn Sunburst II 01/31 16:15:05 46.4 34.0 62 8 NNE 8 30.11 0.00
KORWESTL18 West Linn Hidden Springs 01/31 16:11:09 48.2 38.0 67 0 North 0 29.96 0.00
KORWESTL7 West Linn Hidden Springs 01/31 16:09:25 46.5 37.0 70 4 NE 5 30.10 0.00
KORWESTL16 West Linn Ferncreek 2 01/31 16:15:02 46.8 33.0 59 1 NW 2 30.22 0.00
MD2889 Marylhurst APRSWXNET West Linn OR US 01/31 15:41:00 46.0 37.0 70 2 North 9 30.13 0.00
KORWESTL11 West Linn Ridgebrook Park 01/31 16:11:07 45.4 37.0 72 6 NNW 10 30.13 0.00
KORWESTL13 West Linn Vineland 01/31 16:14:18 46.9 25.0 42 0 East 0 29.62 0.00
KORWESTL20 West Linn Arbor Cove 01/31 16:14:42 52.2 0.0 58 0 WNW 0 --- 0.00
KORWESTL1 West Linn Beaver Nation on Skyline Ridge 01/31 16:14:44 48.4 41.0 75 0 ENE 4 30.14 0.00
MAU650 Marylhurst APRSWXNET West Linn OR US 01/31 15:47:00 50.0 42.0 73 0 ENE 2 30.11 0.00
KORWESTL19 West Linn Bolton 01/31 16:11:43 48.7 39.0 68 0 North 0 30.11 0.00
MODT63 West Linn MesoWest Canemah (OR 99E MP 14) OR US ODOT 01/31 13:42:00 51.0 31.0 47 3 North 8 0.00 0.00
KOROREGO29 Oregon City Canemah Way 01/31 16:15:02 48.2 37.0 66 2 NW 5 30.12 0.00
ME6055 New Era APRSWXNET Oregon City OR US 01/31 15:50:00 49.0 38.0 65 2 NW 8 30.12 0.00
KORMILWA15 Milwaukie Jennings Lodge 01/31 16:06:28 48.9 36.0 62 2 NW 0 29.80 0.00
KORGLADS5 GLADSTONE GLADSTONE (USA) 01/31 16:15:00 49.9 38.0 64 1 NW 3 29.73 0.00
KOROREGO14 Oregon City 221 Molalla Avenue 01/31 16:14:59 48.6 38.0 65 4 North 4 29.79 0.00
KORLAKEO17 Lake Oswego Palisades 01/31 16:11:01 46.8 36.0 66 0 North 0 30.17 0.00
KORMILWA13 Milwaukie Oak Grove 01/31 16:04:44 47.7 38.0 70 2 ENE 0 29.80 0.00
KORLAKEO18 Lake Oswego MSW South Shore Estates 01/31 16:07:55 46.0 36.0 67 5 North 0 30.15 0.00
KOROREGO10 Oregon City Tower Vista 01/31 14:36:27 52.3 30.0 41 5 WNW 5 30.12 0.00
MC9982 New Era APRSWXNET Oregon City OR US 01/31 14:29:00 53.0 29.0 39 3 NW 4 30.25 0.00
KORMILWA16 Milwaukie Southeast River Road 01/31 16:11:46 50.0 38.0 64 0 North 0 30.22 0.00
KORGLADS6 Gladstone Gladstone - Gallweather.com 01/31 16:09:14 47.6 38.0 68 2 NE 2 30.10 0.00
KORPORTL111 Portland Oakgrove PO 1E (Milwaukie) 01/31 16:15:03 47.5 38.0 69 5 ENE 5 30.11 0.00
KORGLADS4 Gladstone Gladstone - Go Beavers! 01/31 16:10:10 47.1 35.0 62 2 North 3 29.92 0.00
KORLAKEO20 Lake Oswego Palisades 01/31 16:11:09 49.3 43.0 79 0 North 0 30.19 0.00
MD9963 Lake Oswego APRSWXNET Rivergrove OR US 01/31 15:45:00 48.0 38.0 67 3 ENE 10 30.04 0.00
KORLAKEO14 Lake Oswego Rivergrove 01/31 16:10:16 48.1 38.0 68 4 NNW 9 30.06 0.00
KOROREGO6 Oregon City Gaffney Lane Neighborhood 01/31 16:15:01 49.5 46.0 88 3 NNW 3 30.00 0.00
KORTUALA10 Tualatin Rosewood 01/31 16:11:14 54.1 39.0 57 0 North 0 30.13 0.00
KORMILWA14 Milwaukie Milwaukie - Webster Rd/Roots 01/31 16:13:07 47.7 35.0 62 3 North 0 29.79 0.00
MAU998 Gladstone APRSWXNET Milwaukie OR US 01/31 15:45:00 49.0 36.0 61 4 North 8 30.01 0.00
KORMILWA9 Milwaukie Milwaukie @ 205 Clackamas 01/31 16:14:55 47.7 21.0 35 5 North 11 29.87 0.00
KORCLACK9 Clackamas 82nd Drive (GO BLAZERS) 01/31 16:15:03 50.9 38.0 60 1 East 4 30.11 0.00
ME1091 Gladstone APRSWXNET Clackamas OR US 01/31 15:50:00 52.0 38.0 59 0 NNW 1 30.13 0.00
KORCLACK8 Clackamas Watkins Park 01/31 16:15:01 48.9 32.0 52 1 NE 2 30.06 0.00
KORLAKEO19 Lake Oswego Lakeview Boulevard 01/31 16:11:02 51.3 39.0 63 0 North 0 30.20 0.00
KORTUALA11 Tualatin Meridian Village 01/31 16:10:46 47.8 36.0 62 2 NNE 0 30.14 0.00
KORCLACK6 Clackamas CHPCS Falcons 01/31 16:00:42 52.0 38.0 59 0 NE 0 30.06 0.00
Full Advisory Text
No Warnings

© Ambient Weather and Weather Underground
 Never base important decisions on this or any weather information obtained from the Internet
Updated Automatically by Ambient Weather's Virtual Weather Station  V13.01